Location: Castelbiague
(43.0361°N, 0.9246°E)
Time: 01:09:43
(UTC+00:00)

Cosmos 1455 - Visible Passes

Search period start: 24 October 2021 00:00
Search period end: 03 November 2021 00:00
Orbit: 496 x 520 km, 82.5° (Epoch: 23 October)

Date Brightness Start Highest point End Pass type
(mag) Time Alt. Az. Time Alt. Az. Time Alt. Az.
24 Oct 4.4 05:32:45 10° NNE 05:36:01 28° ENE 05:39:15 10° SE visible
25 Oct 4.8 05:15:42 10° NNE 05:18:40 22° ENE 05:21:37 10° SE visible
25 Oct 3.5 19:04:36 10° SSW 19:06:47 32° SSW 19:06:47 32° SSW visible
26 Oct 5.2 04:58:45 10° NNE 05:01:19 17° ENE 05:03:51 10° ESE visible
26 Oct 2.0 18:47:19 10° S 18:51:07 88° E 18:51:55 54° N visible
27 Oct 5.3 04:41:57 10° NE 04:43:56 14° ENE 04:45:54 10° ESE visible
27 Oct 2.0 18:30:05 10° S 18:33:50 66° E 18:37:11 13° NNE visible
28 Oct 5.6 04:25:35 10° NE 04:26:33 11° ENE 04:27:30 10° E visible
28 Oct 2.3 18:12:55 10° S 18:16:35 49° E 18:20:15 10° NNE visible
28 Oct 5.5 19:51:06 10° W 19:52:27 12° WNW 19:53:48 10° NW visible
29 Oct 2.0 05:41:27 10° NNW 05:45:11 69° W 05:48:53 10° S visible
29 Oct 2.6 17:55:49 10° SSE 17:59:20 37° E 18:02:50 10° NNE visible
29 Oct 5.2 19:32:53 10° WSW 19:35:04 15° WNW 19:37:14 10° NW visible
30 Oct 2.1 05:24:09 10° N 05:27:54 88° E 05:31:37 10° S visible
30 Oct 3.0 17:38:48 10° SSE 17:42:05 29° E 17:45:23 10° NNE visible
30 Oct 4.9 19:15:00 10° WSW 19:17:41 18° WNW 19:20:23 10° NNW visible
31 Oct 2.5 05:06:53 10° N 05:10:36 66° E 05:14:18 10° SSE visible
31 Oct 3.3 17:21:53 10° SE 17:24:52 22° E 17:27:50 10° NE visible
31 Oct 4.6 18:57:15 10° SW 19:00:19 23° WNW 19:03:24 10° NNW visible
01 Nov 3.1 04:49:39 10° N 04:53:17 49° E 04:56:55 10° SSE visible
01 Nov 4.2 18:39:38 10° SW 18:42:58 29° WNW 18:46:19 10° NNW visible
02 Nov 3.6 04:32:27 10° N 04:35:58 37° ENE 04:39:27 10° SSE visible
02 Nov 3.6 18:22:06 10° SSW 18:25:38 38° WNW 18:29:10 10° N visible
